EW3086 Weather Reports


time (UTC)temp
C
wind
direction
speed
KPH
gust
KPH
rain 1hr
cm
rain 24hr
cm
rain mn
cm
humidity
%
barometer
mb
20260510151503 12 349 4.8 17.7 0.00 0.00 0.00 70 1016.0
20260510151003 12 347 4.8 19.3 0.00 0.00 0.00 70 1016.1
20260510150503 12 330 4.8 19.3 0.00 0.00 0.00 71 1016.2
20260510150003 12 325 3.2 16.1 0.00 0.00 0.00 71 1016.3
20260510145503 12 306 4.8 19.3 0.00 0.00 0.00 71 1016.4
20260510145003 12 318 4.8 19.3 0.00 0.00 0.00 71 1016.5
20260510144502 12 11 4.8 16.1 0.00 0.00 0.00 71 1016.5
20260510144003 12 350 4.8 17.7 0.00 0.00 0.00 71 1016.6
20260510143503 12 316 4.8 17.7 0.00 0.00 0.00 71 1016.6
20260510143002 12 301 3.2 16.1 0.00 0.00 0.00 71 1016.7
20260510142503 12 319 3.2 16.1 0.00 0.00 0.00 72 1016.8
20260510142004 12 339 4.8 24.1 0.00 0.00 0.00 72 1016.7
20260510141502 12 5 4.8 24.1 0.00 0.00 0.00 72 1016.8
20260510141024 12 6 3.2 14.5 0.00 0.00 0.00 72 1016.8
20260510140502 12 347 3.2 12.9 0.00 0.00 0.00 73 1016.9
20260510140002 12 345 3.2 14.5 0.00 0.00 0.00 73 1016.9
20260510135503 11 334 3.2 14.5 0.00 0.00 0.00 73 1016.9
20260510135024 11 8 3.2 12.9 0.00 0.00 0.00 73 1017.0
20260510134503 11 29 1.6 12.9 0.00 0.00 0.00 74 1017.1
20260510134002 11 350 3.2 14.5 0.00 0.00 0.00 74 1017.2
20260510133502 11 11 3.2 14.5 0.00 0.00 0.00 74 1017.2
20260510133002 11 12 4.8 20.9 0.00 0.00 0.00 74 1017.3
20260510132502 11 14 4.8 20.9 0.00 0.00 0.00 74 1017.2
20260510132003 11 5 4.8 20.9 0.00 0.00 0.00 74 1017.2
20260510131502 11 352 4.8 19.3 0.00 0.00 0.00 75 1017.2
20260510131002 11 345 4.8 16.1 0.00 0.00 0.00 75 1017.2
20260510130523 11 341 6.4 19.3 0.00 0.00 0.00 75 1017.1
20260510130002 11 7 3.2 19.3 0.00 0.00 0.00 75 1017.3
20260510125502 11 2 3.2 17.7 0.00 0.00 0.00 76 1017.3
20260510125003 11 13 4.8 12.9 0.00 0.00 0.00 75 1017.3
20260510124502 11 21 3.2 14.5 0.00 0.00 0.00 76 1017.3
20260510124023 11 351 3.2 14.5 0.00 0.00 0.00 75 1017.4
20260510123502 11 63 1.6 14.5 0.00 0.00 0.00 75 1017.4
20260510123002 11 340 3.2 14.5 0.00 0.00 0.00 75 1017.5
20260510122502 11 290 3.2 14.5 0.00 0.00 0.00 75 1017.6
20260510122003 11 300 3.2 19.3 0.00 0.00 0.00 75 1017.5
20260510121502 11 318 3.2 19.3 0.00 0.00 0.00 74 1017.6
20260510121003 11 309 3.2 17.7 0.00 0.00 0.00 74 1017.6
20260510120502 12 321 3.2 17.7 0.00 0.00 0.00 74 1017.6
20260510120002 12 350 4.8 14.5 0.00 0.00 0.00 74 1017.6
20260510115523 12 351 4.8 14.5 0.00 0.00 0.00 74 1017.6
20260510115002 12 330 3.2 12.9 0.00 0.00 0.00 74 1017.7
20260510114502 12 309 1.6 11.3 0.00 0.00 0.00 75 1017.7
20260510114002 12 321 3.2 17.7 0.00 0.00 0.00 75 1017.7
20260510113502 12 330 4.8 17.7 0.00 0.00 0.00 76 1017.6
20260510113002 11 347 4.8 19.3 0.00 0.00 0.00 76 1017.7
20260510112523 11 9 4.8 20.9 0.00 0.00 0.00 76 1017.7
20260510112002 11 6 6.4 20.9 0.00 0.00 0.00 77 1017.8
20260510111502 11 360 6.4 19.3 0.00 0.00 0.00 76 1017.8
20260510111023 11 349 4.8 16.1 0.00 0.00 0.00 76 1017.9
20260510110502 11 308 3.2 20.9 0.00 0.00 0.00 77 1018.0
20260510110002 11 355 3.2 20.9 0.00 0.00 0.00 77 1017.9
20260510105502 11 8 4.8 24.1 0.00 0.00 0.00 77 1018.0
20260510105002 11 331 6.4 24.1 0.00 0.00 0.00 77 1017.9
20260510104502 11 299 6.4 20.9 0.00 0.00 0.00 77 1018.0
20260510104002 11 322 4.8 20.9 0.00 0.00 0.00 78 1017.9
20260510103502 11 350 4.8 17.7 0.00 0.00 0.00 78 1018.0
20260510103002 11 352 4.8 20.9 0.00 0.00 0.00 78 1018.1
20260510102502 11 27 4.8 20.9 0.00 0.00 0.00 78 1018.1
20260510092527 11 92 1.6 29.0 0.00 0.00 0.00 79 1018.2
20260510092006 11 360 3.2 16.1 0.00 0.00 0.00 79 1018.2
20260510091527 11 330 4.8 16.1 0.00 0.00 0.00 79 1018.1
20260510091006 11 325 6.4 19.3 0.00 0.00 0.00 79 1018.2
20260510090505 11 319 4.8 20.9 0.00 0.00 0.00 78 1018.3
20260510090006 11 313 3.2 20.9 0.00 0.00 0.00 78 1018.2
20260510085506 11 354 4.8 19.3 0.00 0.00 0.00 78 1018.3
20260510085006 11 360 4.8 20.9 0.00 0.00 0.00 78 1018.3
20260510084506 11 323 3.2 20.9 0.00 0.00 0.00 78 1018.4
20260510084006 11 285 3.2 12.9 0.00 0.00 0.00 78 1018.4
20260510083506 11 344 3.2 14.5 0.00 0.00 0.00 78 1018.4
20260510083027 11 325 3.2 14.5 0.00 0.00 0.00 78 1018.4
20260510082506 11 302 3.2 14.5 0.00 0.00 0.00 78 1018.4
20260510082006 11 300 3.2 16.1 0.00 0.00 0.00 78 1018.5
20260510081506 11 311 3.2 16.1 0.00 0.00 0.00 78 1018.5
20260510081007 11 302 3.2 12.9 0.00 0.00 0.00 78 1018.5
20260510080506 11 300 3.2 25.7 0.00 0.00 0.00 78 1018.5
20260510080027 11 302 3.2 25.7 0.00 0.00 0.00 78 1018.5
20260510075505 11 306 1.6 12.9 0.00 0.00 0.00 79 1018.5
20260510075027 11 356 3.2 16.1 0.00 0.00 0.00 79 1018.5
20260510074506 11 358 3.2 16.1 0.00 0.00 0.00 79 1018.4
20260510074006 11 329 3.2 11.3 0.00 0.00 0.00 78 1018.5
20260510073506 11 298 3.2 12.9 0.00 0.00 0.00 78 1018.4
20260510073006 11 295 3.2 17.7 0.00 0.00 0.00 78 1018.4
20260510072506 10 299 3.2 17.7 0.00 0.00 0.00 78 1018.3
20260510072006 10 305 3.2 16.1 0.00 0.00 0.00 78 1018.3
20260510071006 10 352 4.8 16.1 0.00 0.00 0.00 78 1018.2
20260510070506 10 12 4.8 17.7 0.00 0.00 0.00 78 1018.1
20260510070006 10 8 3.2 17.7 0.00 0.00 0.00 78 1018.1
20260510065505 10 329 3.2 14.5 0.00 0.00 0.00 79 1018.2
20260510065026 10 329 3.2 14.5 0.00 0.00 0.00 79 1018.1
20260510064505 10 5 3.2 16.1 0.00 0.00 0.00 79 1018.2
20260510064005 10 14 4.8 22.5 0.00 0.00 0.00 79 1018.2
20260510063506 10 359 3.2 22.5 0.00 0.00 0.00 79 1018.1
20260510063005 10 355 4.8 16.1 0.00 0.00 0.00 79 1018.1
20260510062505 10 317 4.8 16.1 0.00 0.00 0.00 79 1017.9
20260510062006 10 258 3.2 17.7 0.00 0.00 0.00 79 1018.0
20260510061506 10 257 3.2 17.7 0.00 0.00 0.00 79 1018.0
20260510061005 10 252 1.6 8.0 0.00 0.00 0.00 79 1018.0
20260510060505 10 288 3.2 11.3 0.00 0.00 0.00 79 1018.0
20260510060006 10 306 3.2 11.3 0.00 0.00 0.00 79 1018.0
20260510055526 10 281 1.6 17.7 0.00 0.00 0.00 79 1017.9
20260510055005 10 278 3.2 17.7 0.00 0.00 0.00 79 1017.9
20260510054526 10 292 3.2 17.7 0.00 0.00 0.00 79 1017.8
20260510054005 10 290 3.2 12.9 0.00 0.00 0.00 79 1017.9
20260510053505 10 277 3.2 12.9 0.00 0.00 0.00 79 1018.0
20260510053005 10 260 4.8 12.9 0.00 0.00 0.00 79 1017.9
20260510052505 10 268 3.2 16.1 0.00 0.00 0.00 79 1017.9
20260510052005 10 294 4.8 16.1 0.00 0.00 0.00 79 1017.9
20260510051505 10 309 4.8 19.3 0.00 0.00 0.00 79 1017.9
20260510051005 10 297 4.8 19.3 0.00 0.00 0.00 79 1017.8
20260510050505 10 238 3.2 16.1 0.00 0.00 0.00 79 1018.0
20260510050005 10 249 4.8 16.1 0.00 0.00 0.00 79 1018.0
20260510045505 10 252 6.4 14.5 0.00 0.00 0.00 79 1018.0
20260510045005 10 228 4.8 14.5 0.00 0.00 0.00 79 1017.9
20260510044505 10 259 3.2 12.9 0.00 0.00 0.00 79 1017.9
20260510044005 10 308 1.6 12.9 0.00 0.00 0.00 79 1017.9
20260510043526 10 248 1.6 11.3 0.00 0.00 0.00 79 1017.9
20260510043005 10 253 3.2 12.9 0.00 0.00 0.00 79 1017.9
20260510042505 10 241 3.2 14.5 0.00 0.00 0.00 79 1018.0
20260510042005 10 219 3.2 14.5 0.00 0.00 0.00 79 1018.0
20260510041526 10 258 4.8 16.1 0.00 0.00 0.00 79 1018.0
20260510041005 10 306 3.2 16.1 0.00 0.00 0.00 79 1018.0
20260510040505 10 310 3.2 14.5 0.00 0.00 0.00 79 1018.1
20260510040005 10 275 3.2 16.1 0.00 0.00 0.00 79 1018.2
20260510035505 10 260 3.2 16.1 0.00 0.00 0.00 79 1018.2
20260510035005 10 287 3.2 12.9 0.00 0.00 0.00 79 1018.2
20260510034505 10 275 3.2 12.9 0.00 0.00 0.00 79 1018.2
20260510034005 10 203 1.6 9.7 0.00 0.00 0.00 79 1018.3
20260510033505 10 280 1.6 9.7 0.00 0.00 0.00 79 1018.2
20260510033005 10 307 3.2 14.5 0.00 0.00 0.00 78 1018.2
20260510032526 10 312 3.2 17.7 0.00 0.00 0.00 78 1018.2
20260510032005 10 312 3.2 17.7 0.00 0.00 0.00 78 1018.2
20260510031505 10 303 3.2 14.5 0.00 0.00 0.00 78 1018.1
20260510031026 10 306 3.2 16.1 0.00 0.00 0.00 78 1018.2
20260510030505 10 278 3.2 16.1 0.00 0.00 0.00 78 1018.3
20260510030005 10 274 3.2 11.3 0.00 0.00 0.00 78 1018.2
20260510025505 10 273 1.6 11.3 0.00 0.00 0.00 78 1018.2
20260510025005 10 268 3.2 11.3 0.00 0.00 0.00 77 1018.2
20260510024526 10 284 3.2 19.3 0.00 0.00 0.00 78 1018.3
20260510024005 10 241 3.2 19.3 0.00 0.00 0.00 78 1018.2
20260510023505 10 222 3.2 12.9 0.00 0.00 0.00 78 1018.2
20260510023005 11 178 3.2 14.5 0.00 0.00 0.00 78 1018.3
20260510022505 11 173 3.2 14.5 0.00 0.00 0.00 78 1018.3
20260510022026 11 203 3.2 12.9 0.00 0.00 0.00 78 1018.4
20260510021526 11 196 4.8 12.9 0.00 0.00 0.00 78 1018.4
20260510021005 11 183 3.2 33.8 0.00 0.00 0.00 78 1018.4
20260510020526 11 190 3.2 33.8 0.00 0.00 0.00 78 1018.4
20260510020005 11 207 3.2 12.9 0.00 0.00 0.00 78 1018.4
20260510015526 11 192 3.2 12.9 0.00 0.00 0.00 78 1018.3
20260510015005 11 166 1.6 8.0 0.00 0.00 0.00 78 1018.2
20260510014505 11 316 0.0 6.4 0.00 0.00 0.00 78 1018.2
20260510014005 11 195 1.6 11.3 0.00 0.00 0.00 78 1018.1
20260510013505 11 180 0.0 11.3 0.00 0.00 0.00 78 1018.1
20260510013005 11 178 0.0 4.8 0.00 0.00 0.00 78 1018.2
20260510012526 11 178 1.6 4.8 0.00 0.00 0.00 78 1018.1
20260510012005 11 189 1.6 9.7 0.00 0.00 0.00 78 1018.1
20260510011505 11 184 1.6 9.7 0.00 0.00 0.00 78 1018.2
20260510011005 12 206 1.6 12.9 0.00 0.00 0.00 79 1018.1
20260510010505 12 233 0.0 12.9 0.00 0.00 0.00 79 1018.1
20260510010005 12 178 3.2 11.3 0.00 0.00 0.00 79 1018.1
20260510005505 12 179 3.2 11.3 0.00 0.00 0.00 79 1018.0
20260510005005 12 204 1.6 9.7 0.00 0.00 0.00 79 1017.9
20260510004505 12 223 1.6 11.3 0.00 0.00 0.00 79 1018.1
20260510004026 12 207 1.6 11.3 0.00 0.00 0.00 79 1018.1
20260510003505 12 202 1.6 11.3 0.00 0.00 0.00 79 1018.0
20260510003005 12 185 1.6 9.7 0.00 0.00 0.00 79 1018.1
20260510002526 12 189 0.0 8.0 0.00 0.00 0.00 79 1018.1
20260510002005 12 163 1.6 14.5 0.00 0.00 0.00 79 1018.1
20260510001505 12 170 1.6 14.5 0.00 0.00 0.00 79 1018.0
20260510001005 12 189 1.6 11.3 0.00 0.00 0.00 79 1017.9
20260510000504 12 274 1.6 8.0 0.00 0.00 0.00 79 1017.9
20260510000005 12 355 0.0 8.0 0.00 0.00 0.00 80 1017.9
20260509235505 12 131 1.6 9.7 0.00 0.00 0.00 80 1018.0
20260509235005 12 160 1.6 9.7 0.00 0.00 0.00 80 1018.0
20260509234504 12 153 0.0 4.8 0.00 0.00 0.00 80 1017.9
20260509234005 12 153 0.0 4.8 0.00 0.00 0.00 80 1018.0
20260509233504 12 156 0.0 8.0 0.00 0.00 0.00 80 1017.9
20260509233004 12 169 0.0 8.0 0.00 0.00 0.00 80 1018.0
20260509232505 12 194 0.0 8.0 0.00 0.00 0.00 80 1018.0
20260509232005 12 130 1.6 8.0 0.00 0.00 0.00 80 1017.9
20260509231504 12 41 0.0 8.0 0.00 0.00 0.00 80 1017.9
20260509231005 13 0 0.0 0.0 0.00 0.00 0.00 80 1017.8
20260509230505 13 0 0.0 0.0 0.00 0.00 0.00 80 1017.9
20260509230008 13 259 0.0 11.3 0.00 0.00 0.00 79 1017.9
20260509225526 13 259 0.0 11.3 0.00 0.00 0.00 79 1017.9
20260509225004 13 0 0.0 0.0 0.00 0.00 0.00 79 1017.9
20260509224504 13 186 0.0 4.8 0.00 0.00 0.00 79 1017.8
20260509224005 13 186 0.0 4.8 0.00 0.00 0.00 79 1017.8
20260509223504 13 0 0.0 0.0 0.00 0.00 0.00 79 1017.7
20260509223005 13 190 0.0 9.7 0.00 0.00 0.00 79 1017.7
20260509222505 13 188 0.0 9.7 0.00 0.00 0.00 79 1017.6
20260509222026 13 184 0.0 9.7 0.00 0.00 0.00 79 1017.6
20260509221504 13 171 0.0 8.0 0.00 0.00 0.00 78 1017.6
20260509221025 13 167 0.0 8.0 0.00 0.00 0.00 78 1017.5
20260509220504 13 188 0.0 6.4 0.00 0.00 0.00 77 1017.6
20260509220025 13 216 0.0 4.8 0.00 0.00 0.00 77 1017.6
20260509215504 13 150 0.0 3.2 0.00 0.00 0.00 76 1017.5
20260509215004 13 154 0.0 3.2 0.00 0.00 0.00 76 1017.5
20260509214504 13 162 0.0 3.2 0.00 0.00 0.00 76 1017.5
20260509214004 13 222 0.0 3.2 0.00 0.00 0.00 76 1017.5
20260509213504 14 360 1.6 12.9 0.00 0.00 0.00 75 1017.4
20260509213005 14 26 1.6 14.5 0.00 0.00 0.00 76 1017.3
20260509212504 14 38 0.0 14.5 0.00 0.00 0.00 76 1017.3
20260509212004 14 209 0.0 6.4 0.00 0.00 0.00 76 1017.2
20260509211504 14 354 0.0 1.6 0.00 0.00 0.00 76 1017.1
20260509211004 14 37 1.6 16.1 0.00 0.00 0.00 76 1017.1
20260509210525 14 10 3.2 16.1 0.00 0.00 0.00 76 1017.1
20260509210005 14 355 1.6 11.3 0.00 0.00 0.00 77 1017.0
20260509205504 14 14 1.6 11.3 0.00 0.00 0.00 78 1016.9
20260509205005 14 352 1.6 8.0 0.00 0.00 0.00 78 1017.0
20260509204504 13 337 1.6 6.4 0.00 0.00 0.00 79 1016.9
20260509204004 13 339 0.0 6.4 0.00 0.00 0.00 79 1017.0
20260509203504 13 0 0.0 0.0 0.00 0.00 0.00 79 1016.9
20260509203004 13 0 0.0 0.0 0.00 0.00 0.00 78 1017.0
20260509202504 13 0 0.0 0.0 0.00 0.00 0.00 78 1016.9
20260509202025 13 0 0.0 0.0 0.00 0.00 0.00 78 1016.9
20260509201504 13 0 0.0 0.0 0.00 0.00 0.00 78 1016.8
20260509201025 13 0 0.0 0.0 0.00 0.00 0.00 78 1016.8
20260509200504 13 0 0.0 0.0 0.00 0.00 0.00 77 1016.6
20260509200004 13 0 0.0 0.0 0.00 0.00 0.00 77 1016.5
20260509195504 13 0 0.0 0.0 0.00 0.00 0.00 76 1016.5
20260509195004 14 19 0.0 1.6 0.00 0.00 0.00 76 1016.5
20260509194504 14 19 0.0 1.6 0.00 0.00 0.00 75 1016.4
20260509194004 14 0 0.0 0.0 0.00 0.00 0.00 75 1016.4
20260509193504 15 0 0.0 0.0 0.00 0.00 0.00 75 1016.4
20260509193004 15 0 0.0 0.0 0.00 0.00 0.00 74 1016.4
20260509192504 15 0 0.0 0.0 0.00 0.00 0.00 74 1016.4
20260509192004 15 0 0.0 0.0 0.00 0.00 0.00 74 1016.5
20260509191504 15 11 0.0 1.6 0.00 0.00 0.00 74 1016.5
20260509191004 15 7 0.0 6.4 0.00 0.00 0.00 74 1016.5